KC0AFB Weather Reports


time (UTC)temp
F
wind
direction
speed
knots
gust
knots
rain 1hr
in
rain 24hr
in
rain mn
in
humidity
%
barometer
mb
20260905140832 76 115 5.2 6.1 0.00 0.00 0.00 72 1013.3
20260905140331 75 134 7.8 8.7 0.00 0.00 0.00 73 1013.0
20260905135830 74 128 6.1 7.0 0.00 0.00 0.00 74 1013.2
20260905135326 73 189 6.1 7.0 0.00 0.00 0.00 77 1013.0
20260905134821 72 65 5.2 7.0 0.00 0.00 0.00 80 1012.7
20260905134314 73 96 4.3 6.1 0.00 0.00 0.00 79 1013.0
20260905133809 72 127 4.3 5.2 0.00 0.00 0.00 80 1012.9
20260905133305 72 99 4.3 5.2 0.00 0.00 0.00 80 1012.7
20260905132803 72 122 5.2 7.0 0.00 0.00 0.00 81 1012.7
20260905132259 71 115 4.3 6.1 0.00 0.00 0.00 81 1012.6
20260905131759 71 105 4.3 5.2 0.00 0.00 0.00 82 1012.4
20260905131254 71 103 5.2 6.1 0.00 0.00 0.00 82 1012.7
20260905130750 71 77 4.3 5.2 0.00 0.00 0.00 83 1012.5
20260905130249 71 125 3.5 4.3 0.00 0.00 0.00 83 1012.5
20260905125744 71 103 4.3 5.2 0.00 0.00 0.00 84 1012.7
20260905125239 70 111 4.3 6.1 0.00 0.00 0.00 84 1012.4
20260905124735 70 90 6.1 7.0 0.00 0.00 0.00 85 1012.5
20260905124231 70 91 5.2 6.1 0.00 0.00 0.00 85 1012.7
20260905123726 70 127 5.2 6.1 0.00 0.00 0.00 85 1012.6
20260905123223 70 138 4.3 6.1 0.00 0.00 0.00 86 1012.4
20260905122722 70 106 6.1 7.0 0.00 0.00 0.00 87 1011.9
20260905122217 69 157 6.1 7.8 0.00 0.00 0.00 88 1012.1
20260905121712 69 130 4.3 5.2 0.00 0.00 0.00 88 1012.1
20260905121209 69 142 7.0 7.8 0.00 0.00 0.00 88 1012.0
20260905120707 69 76 7.0 8.7 0.00 0.00 0.00 89 1012.0
20260905120201 69 102 7.0 7.8 0.00 0.00 0.00 89 1012.0
20260905115656 69 120 5.2 7.0 0.00 0.00 0.00 89 1012.0
20260905115151 69 109 6.1 7.0 0.00 0.00 0.00 90 1012.1
20260905114651 69 131 6.1 7.0 0.00 0.00 0.00 90 1012.1
20260905114149 68 83 5.2 7.0 0.00 0.00 0.00 90 1012.0
20260905113644 68 106 5.2 6.1 0.00 0.00 0.00 91 1012.2
20260905113139 68 128 3.5 4.3 0.00 0.00 0.00 91 1012.2
20260905112633 68 90 3.5 4.3 0.00 0.00 0.00 91 1012.1
20260905112130 68 106 2.6 2.6 0.00 0.00 0.00 90 1012.4
20260905111629 68 119 3.5 4.3 0.00 0.00 0.00 90 1012.3
20260905111128 68 95 4.3 4.3 0.00 0.00 0.00 90 1012.2
20260905110628 68 143 6.1 7.0 0.00 0.00 0.00 90 1012.0
20260905110123 68 131 4.3 5.2 0.00 0.00 0.00 90 1011.9
20260905105618 68 118 6.1 7.0 0.00 0.00 0.00 90 1011.9
20260905105117 69 114 5.2 6.1 0.00 0.00 0.00 90 1012.1
20260905104612 69 109 5.2 7.0 0.00 0.00 0.00 90 1011.9
20260905104107 69 126 6.1 7.8 0.00 0.00 0.00 90 1011.6
20260905103602 69 148 5.2 6.1 0.00 0.00 0.00 90 1011.8
20260905103059 69 112 4.3 6.1 0.00 0.00 0.00 90 1011.5
20260905102554 69 131 7.8 7.8 0.00 0.00 0.00 90 1011.7
20260905102050 69 132 7.0 7.8 0.00 0.00 0.00 90 1011.7
20260905101549 69 129 5.2 6.1 0.00 0.00 0.00 89 1011.6
20260905101047 69 107 7.8 9.6 0.00 0.00 0.00 89 1011.7
20260905100544 69 101 7.8 11.3 0.00 0.00 0.00 89 1011.5
20260905100043 69 108 7.8 9.6 0.00 0.00 0.00 89 1011.4
20260905095537 69 98 9.6 11.3 0.00 0.00 0.00 89 1011.6
20260905095033 70 107 7.8 9.6 0.00 0.00 0.00 89 1011.4
20260905094528 70 87 9.6 11.3 0.00 0.00 0.00 88 1011.6
20260905094027 70 117 7.8 9.6 0.00 0.00 0.00 88 1011.3
20260905093516 70 90 12.2 14.8 0.00 0.00 0.00 88 1011.4
20260905093013 70 142 7.0 7.8 0.00 0.00 0.00 88 1011.5
20260905092513 70 144 7.0 7.8 0.00 0.00 0.00 88 1011.3
20260905092009 70 109 8.7 11.3 0.00 0.00 0.00 88 1011.4
20260905091508 70 117 8.7 9.6 0.00 0.00 0.00 87 1011.4
20260905091002 70 89 9.6 11.3 0.00 0.00 0.00 87 1011.6
20260905090457 70 136 8.7 11.3 0.00 0.00 0.00 87 1011.4
20260905085956 70 105 8.7 11.3 0.00 0.00 0.00 86 1011.5
20260905085455 70 112 8.7 9.6 0.00 0.00 0.00 86 1011.4
20260905084951 71 110 8.7 9.6 0.00 0.00 0.00 85 1011.5
20260905084451 71 126 7.8 8.7 0.00 0.00 0.00 84 1011.7
20260905083945 71 97 7.8 8.7 0.00 0.00 0.00 83 1011.8
20260905083442 71 85 9.6 12.2 0.00 0.00 0.00 82 1011.9
20260905082937 71 105 9.6 12.2 0.00 0.00 0.00 82 1011.9
20260905082433 71 100 6.1 7.0 0.00 0.00 0.00 81 1011.9
20260905081927 71 98 7.0 7.0 0.00 0.00 0.00 81 1011.9
20260905081422 71 116 7.8 8.7 0.00 0.00 0.00 80 1011.9
20260905080921 72 103 7.0 8.7 0.00 0.00 0.00 80 1011.9
20260905080416 72 101 9.6 11.3 0.00 0.00 0.00 80 1011.9
20260905075915 72 110 7.8 7.8 0.00 0.00 0.00 79 1012.0
20260905075409 72 145 7.8 9.6 0.00 0.00 0.00 79 1011.9
20260905074908 72 110 6.1 8.7 0.00 0.00 0.00 79 1012.2
20260905074404 72 108 11.3 13.9 0.00 0.00 0.00 78 1012.1
20260905073900 72 130 7.8 9.6 0.00 0.00 0.00 78 1012.2
20260905073355 72 109 7.0 7.8 0.00 0.00 0.00 78 1012.0
20260905072850 72 103 7.8 7.8 0.00 0.00 0.00 78 1012.2
20260905072345 72 122 7.8 9.6 0.00 0.00 0.00 77 1012.2
20260905071841 73 110 7.8 8.7 0.00 0.00 0.00 77 1012.3
20260905071337 73 111 7.8 8.7 0.00 0.00 0.00 77 1012.2
20260905070832 73 103 5.2 6.1 0.00 0.00 0.00 77 1012.3
20260905070328 73 67 7.8 8.7 0.00 0.00 0.00 77 1012.2
20260905065827 73 121 8.7 12.2 0.00 0.00 0.00 77 1012.4
20260905065325 73 141 7.8 11.3 0.00 0.00 0.00 77 1012.4
20260905064821 73 115 10.4 12.2 0.00 0.00 0.00 76 1012.2
20260905064317 73 78 9.6 12.2 0.00 0.00 0.00 76 1012.2
20260905063814 73 142 8.7 11.3 0.00 0.00 0.00 77 1012.3
20260905063311 73 98 6.1 7.0 0.00 0.00 0.00 77 1012.2
20260905062807 73 108 7.0 7.8 0.00 0.00 0.00 76 1012.4
20260905062305 74 94 7.8 8.7 0.00 0.00 0.00 76 1012.4
20260905061755 74 81 6.1 7.0 0.00 0.00 0.00 76 1012.5
20260905061250 74 86 6.1 7.0 0.00 0.00 0.00 75 1012.3
20260905060744 74 59 12.2 14.8 0.00 0.00 0.00 74 1012.2
20260905060242 75 102 9.6 11.3 0.00 0.00 0.00 73 1012.4
20260905055740 75 94 7.8 11.3 0.00 0.00 0.00 73 1012.4
20260905055235 75 76 10.4 13.0 0.00 0.00 0.00 73 1012.2
20260905054730 75 61 9.6 12.2 0.00 0.00 0.00 73 1012.5
20260905054227 75 119 9.6 11.3 0.00 0.00 0.00 73 1012.2
20260905053725 75 130 15.6 20.0 0.00 0.00 0.00 74 1012.3
20260905053221 75 108 9.6 11.3 0.00 0.00 0.00 74 1012.5
20260905052715 75 108 12.2 13.9 0.00 0.00 0.00 75 1012.4
20260905052210 75 91 7.0 7.8 0.00 0.00 0.00 74 1012.5
20260905051710 75 107 6.1 7.8 0.00 0.00 0.00 74 1013.0
20260905051207 75 102 8.7 11.3 0.00 0.00 0.00 73 1012.6
20260905050702 75 132 8.7 11.3 0.00 0.00 0.00 73 1012.6
20260905050159 75 120 9.6 12.2 0.00 0.00 0.00 73 1012.5
20260905045658 75 118 8.7 9.6 0.00 0.00 0.00 74 1012.5
20260905045154 75 101 7.0 7.8 0.00 0.00 0.00 74 1012.4
20260905044649 75 65 7.8 11.3 0.00 0.00 0.00 74 1012.6
20260905044144 75 90 6.1 7.8 0.00 0.00 0.00 74 1012.4
20260905043642 75 73 7.8 9.6 0.00 0.00 0.00 74 1012.5
20260905043138 75 120 7.8 12.2 0.00 0.00 0.00 73 1012.4
20260905042637 75 116 10.4 13.0 0.00 0.00 0.00 73 1012.6
20260905042131 75 139 8.7 12.2 0.00 0.00 0.00 73 1012.6
20260905041627 75 102 6.1 7.8 0.00 0.00 0.00 73 1012.7
20260905041122 75 124 6.1 7.8 0.00 0.00 0.00 72 1012.6
20260905040617 75 106 7.8 8.7 0.00 0.00 0.00 72 1012.5
20260905040116 75 122 6.1 7.0 0.00 0.00 0.00 72 1012.6
20260905035611 75 119 8.7 8.7 0.00 0.00 0.00 72 1012.7
20260905035107 75 95 7.8 11.3 0.00 0.00 0.00 72 1012.5
20260905034603 75 91 9.6 11.3 0.00 0.00 0.00 72 1012.7
20260905034057 76 128 5.2 7.8 0.00 0.00 0.00 72 1012.7
20260905033551 75 162 9.6 12.2 0.00 0.00 0.00 72 1012.6
20260905033047 75 137 10.4 13.9 0.00 0.00 0.00 72 1012.5
20260905032546 75 100 7.8 9.6 0.00 0.00 0.00 72 1012.9
20260905032041 75 125 8.7 11.3 0.00 0.00 0.00 72 1012.9
20260905031537 75 98 8.7 13.0 0.00 0.00 0.00 72 1012.7
20260905031037 76 79 7.0 7.8 0.00 0.00 0.00 71 1013.1
20260905030527 76 108 7.0 8.7 0.00 0.00 0.00 70 1012.9
20260905030027 76 117 5.2 6.1 0.00 0.00 0.00 70 1012.7
20260905025522 76 100 8.7 11.3 0.00 0.00 0.00 70 1012.9
20260905025019 77 80 7.8 9.6 0.00 0.00 0.00 69 1013.0
20260905024513 77 68 10.4 11.3 0.00 0.00 0.00 68 1013.0
20260905024009 77 89 7.0 8.7 0.00 0.00 0.00 68 1013.1
20260905023509 77 78 7.0 7.8 0.00 0.00 0.00 68 1012.9
20260905023003 77 116 8.7 12.2 0.00 0.00 0.00 67 1013.0
20260905022458 77 91 7.8 12.2 0.00 0.00 0.00 67 1012.9
20260905021953 77 117 8.7 9.6 0.00 0.00 0.00 66 1012.7
20260905021452 78 93 7.8 8.7 0.00 0.00 0.00 66 1012.7
20260905020948 77 145 7.8 9.6 0.00 0.00 0.00 66 1013.0
20260905020447 77 107 7.8 12.2 0.00 0.00 0.00 66 1012.9
20260905015942 78 94 6.1 7.0 0.00 0.00 0.00 65 1013.1
20260905015440 78 107 4.3 5.2 0.00 0.00 0.00 65 1013.0
20260905014939 78 113 6.1 7.8 0.00 0.00 0.00 64 1012.7
20260905014435 78 127 6.1 7.8 0.00 0.00 0.00 64 1012.6
20260905013930 78 77 3.5 5.2 0.00 0.00 0.00 64 1013.0
20260905013427 79 100 4.3 5.2 0.00 0.00 0.00 63 1012.6
20260905012922 79 74 4.3 6.1 0.00 0.00 0.00 62 1012.5
20260905012417 80 113 4.3 5.2 0.00 0.00 0.00 61 1012.6
20260905011914 80 104 6.1 7.0 0.00 0.00 0.00 60 1012.5
20260905011408 80 107 7.8 8.7 0.00 0.00 0.00 59 1012.4
20260905010904 81 134 5.2 7.0 0.00 0.00 0.00 59 1012.5
20260905010359 81 100 4.3 5.2 0.00 0.00 0.00 58 1012.3
20260905005855 82 85 5.2 5.2 0.00 0.00 0.00 57 1012.6
20260905005350 82 123 7.8 8.7 0.00 0.00 0.00 56 1012.3
20260905004845 82 102 9.6 9.6 0.00 0.00 0.00 55 1012.2
20260905004340 83 99 7.0 7.0 0.00 0.00 0.00 54 1012.0
20260905003836 83 75 7.8 9.6 0.00 0.00 0.00 54 1012.1
20260905003332 83 95 7.8 9.6 0.00 0.00 0.00 53 1012.2
20260905002826 84 81 10.4 12.2 0.00 0.00 0.00 52 1012.1
20260905002321 84 79 8.7 13.0 0.00 0.00 0.00 51 1012.0
20260905001816 85 102 7.8 7.8 0.00 0.00 0.00 50 1011.9
20260905001315 85 105 7.8 9.6 0.00 0.00 0.00 50 1011.8
20260905000811 86 128 7.8 9.6 0.00 0.00 0.00 49 1012.0
20260905000306 86 115 7.0 7.8 0.00 0.00 0.00 49 1011.9
20260904235801 86 147 6.1 7.8 0.00 0.00 0.00 50 1011.8
20260904235256 86 118 6.1 7.0 0.00 0.00 0.00 52 1011.9
20260904234750 86 87 8.7 9.6 0.00 0.00 0.00 52 1012.0
20260904234240 86 87 9.6 13.9 0.00 0.00 0.00 54 1011.9
20260904233736 86 80 7.8 9.6 0.00 0.00 0.00 54 1011.7
20260904233232 85 68 7.0 9.6 0.00 0.00 0.00 57 1011.7
20260904232729 85 102 6.1 7.8 0.00 0.00 0.00 57 1011.9
20260904232225 85 95 9.6 13.0 0.00 0.00 0.00 56 1011.8
20260904231720 86 69 9.6 13.0 0.00 0.00 0.00 56 1011.7
20260904231215 86 123 7.8 8.7 0.00 0.00 0.00 56 1011.8
20260904230715 86 95 10.4 13.0 0.00 0.00 0.00 55 1011.7
20260904230209 86 98 7.8 9.6 0.00 0.00 0.00 55 1011.6
20260904225708 86 78 13.0 14.8 0.00 0.00 0.00 54 1011.6
20260904225202 86 88 10.4 15.6 0.00 0.00 0.00 54 1011.6
20260904224656 86 113 9.6 11.3 0.00 0.00 0.00 54 1011.7
20260904224151 86 104 7.8 8.7 0.00 0.00 0.00 54 1011.8
20260904223651 86 55 10.4 13.0 0.00 0.00 0.00 53 1011.8
20260904223146 87 57 7.8 11.3 0.00 0.00 0.00 52 1011.7
20260904222642 87 103 10.4 12.2 0.00 0.00 0.00 51 1012.0
20260904222137 87 85 13.0 14.8 0.00 0.00 0.00 50 1011.9
20260904221636 87 92 7.0 7.0 0.00 0.00 0.00 50 1011.7
20260904221132 87 106 12.2 14.8 0.00 0.00 0.00 48 1011.9
20260904220626 87 115 8.7 9.6 0.00 0.00 0.00 48 1012.2
20260904220122 88 127 9.6 11.3 0.00 0.00 0.00 46 1012.1
20260904215622 88 120 6.1 8.7 0.00 0.00 0.00 47 1012.1
20260904215118 88 127 7.0 7.8 0.00 0.00 0.00 45 1012.2
20260904214618 88 122 11.3 14.8 0.00 0.00 0.00 44 1012.0
20260904214114 89 90 10.4 12.2 0.00 0.00 0.00 44 1012.0
20260904213611 89 88 7.8 11.3 0.00 0.00 0.00 44 1012.0
20260904213108 88 102 10.4 14.8 0.00 0.00 0.00 45 1011.9
20260904212608 88 122 12.2 13.0 0.00 0.00 0.00 45 1012.0
20260904212103 88 136 13.9 15.6 0.00 0.00 0.00 44 1011.9
20260904211602 88 86 11.3 13.9 0.00 0.00 0.00 45 1011.9
20260904211058 88 147 7.8 12.2 0.00 0.00 0.00 46 1011.9
20260904210557 88 111 8.7 9.6 0.00 0.00 0.00 47 1012.1
20260904210053 88 119 8.7 11.3 0.00 0.00 0.00 47 1012.1
20260904205548 88 51 7.8 11.3 0.00 0.00 0.00 47 1012.2
20260904205045 88 125 13.9 15.6 0.00 0.00 0.00 46 1012.1
20260904204541 87 133 8.7 9.6 0.00 0.00 0.00 47 1012.2
20260904204036 88 122 8.7 9.6 0.00 0.00 0.00 47 1012.6
20260904203533 88 136 7.8 8.7 0.00 0.00 0.00 47 1012.5
20260904203029 88 108 7.8 9.6 0.00 0.00 0.00 47 1012.4
20260904202524 88 136 10.4 13.9 0.00 0.00 0.00 45 1012.4
20260904202021 88 96 9.6 12.2 0.00 0.00 0.00 44 1012.4
20260904201516 88 135 6.1 8.7 0.00 0.00 0.00 46 1012.6
20260904201011 88 85 8.7 9.6 0.00 0.00 0.00 44 1012.4
20260904200509 88 127 9.6 9.6 0.00 0.00 0.00 43 1012.5
20260904200005 88 93 4.3 5.2 0.00 0.00 0.00 43 1012.3
20260904195503 88 114 8.7 12.2 0.00 0.00 0.00 43 1012.2
20260904195002 88 139 9.6 11.3 0.00 0.00 0.00 41 1012.3
20260904194457 88 123 13.0 18.2 0.00 0.00 0.00 43 1012.2
20260904193952 87 90 7.8 8.7 0.00 0.00 0.00 46 1012.3
20260904193447 87 99 5.2 7.0 0.00 0.00 0.00 49 1012.5
20260904192942 86 106 7.0 9.6 0.00 0.00 0.00 51 1013.0
20260904192437 86 105 8.7 8.7 0.00 0.00 0.00 50 1012.6
20260904191934 86 122 11.3 13.0 0.00 0.00 0.00 50 1012.7
20260904191430 86 88 12.2 14.8 0.00 0.00 0.00 50 1013.0
20260904190926 86 72 10.4 12.2 0.00 0.00 0.00 50 1012.9
20260904190421 86 122 7.8 9.6 0.00 0.00 0.00 51 1013.2
20260904185918 86 134 7.0 8.7 0.00 0.00 0.00 52 1013.3
20260904185413 85 143 9.6 11.3 0.00 0.00 0.00 53 1013.5
20260904184913 86 140 4.3 5.2 0.00 0.00 0.00 53 1013.6
20260904184408 86 118 7.8 11.3 0.00 0.00 0.00 51 1013.4
20260904183903 85 153 10.4 12.2 0.00 0.00 0.00 52 1013.8
20260904183358 84 82 6.1 7.8 0.00 0.00 0.00 53 1013.9
20260904182854 85 114 9.6 9.6 0.00 0.00 0.00 53 1013.7
20260904182348 84 144 7.0 9.6 0.00 0.00 0.00 53 1013.7
20260904181843 84 134 7.0 7.8 0.00 0.00 0.00 55 1013.8
20260904181338 84 89 7.8 8.7 0.00 0.00 0.00 55 1013.9
20260904180833 84 135 7.8 11.3 0.00 0.00 0.00 56 1014.0
20260904180329 83 106 7.8 8.7 0.00 0.00 0.00 56 1013.9
20260904175828 83 126 9.6 11.3 0.00 0.00 0.00 57 1014.1
20260904175327 82 88 8.7 9.6 0.00 0.00 0.00 60 1014.4
20260904174827 82 154 7.8 8.7 0.00 0.00 0.00 59 1014.2
20260904174323 81 134 7.0 9.6 0.00 0.00 0.00 61 1014.4
20260904173819 81 124 7.8 8.7 0.00 0.00 0.00 63 1014.3
20260904173314 80 54 3.5 4.3 0.00 0.00 0.00 66 1014.2
20260904172810 80 90 4.3 5.2 0.00 0.00 0.00 64 1014.4
20260904172309 81 77 7.0 7.8 0.00 0.00 0.00 64 1014.5
20260904171804 80 92 6.1 7.0 0.00 0.00 0.00 66 1014.5
20260904171259 79 103 7.0 8.7 0.00 0.00 0.00 65 1014.4
20260904170755 79 75 6.1 7.8 0.00 0.00 0.00 67 1014.4
20260904170252 79 104 10.4 12.2 0.00 0.00 0.00 67 1014.1
20260904165750 78 97 5.2 7.8 0.00 0.00 0.00 70 1014.3
20260904165250 78 87 6.1 7.0 0.00 0.00 0.00 71 1014.2
20260904164744 78 100 6.1 7.0 0.00 0.00 0.00 72 1014.1
20260904164240 78 119 5.2 7.0 0.00 0.00 0.00 72 1014.3
20260904163736 77 118 7.0 7.8 0.00 0.00 0.00 72 1014.1
20260904163231 76 96 5.2 6.1 0.00 0.00 0.00 75 1014.1
20260904162730 76 85 9.6 11.3 0.00 0.00 0.00 74 1013.8
20260904162225 76 131 5.2 6.1 0.00 0.00 0.00 75 1013.9
20260904161720 75 89 7.0 8.7 0.00 0.00 0.00 76 1013.8
20260904161216 75 49 6.1 7.0 0.00 0.00 0.00 77 1013.9
20260904160711 74 64 6.1 6.1 0.00 0.00 0.00 78 1013.9
20260904160206 74 60 7.8 7.8 0.00 0.00 0.00 79 1013.9
20260904155706 73 59 8.7 9.6 0.00 0.00 0.00 80 1013.9
20260904155206 73 85 6.1 7.0 0.00 0.00 0.00 81 1013.9
20260904154704 72 74 9.6 12.2 0.00 0.00 0.00 82 1013.9
20260904154200 72 72 6.1 7.0 0.00 0.00 0.00 83 1014.0
20260904153655 71 93 6.1 7.0 0.00 0.00 0.00 83 1013.9
20260904153150 71 94 5.2 6.1 0.00 0.00 0.00 84 1014.2
20260904152647 70 90 7.0 8.7 0.00 0.00 0.00 85 1014.1
20260904152141 70 97 4.3 5.2 0.00 0.00 0.00 86 1014.1
20260904151636 69 88 7.8 7.8 0.00 0.00 0.00 86 1014.1
20260904151135 69 124 6.1 7.8 0.00 0.00 0.00 86 1014.1
20260904150631 69 81 4.3 7.0 0.00 0.00 0.00 87 1014.1
20260904150126 68 86 4.3 5.2 0.00 0.00 0.00 88 1014.2
20260904145625 68 74 6.1 8.7 0.00 0.00 0.00 88 1014.4
20260904145120 67 98 3.5 6.1 0.00 0.00 0.00 89 1014.0
20260904144616 66 101 6.1 7.8 0.00 0.00 0.00 89 1014.3
20260904144111 66 73 7.8 9.6 0.00 0.00 0.00 89 1014.3
20260904143607 65 65 7.8 8.7 0.00 0.00 0.00 90 1014.1
20260904143103 64 68 7.0 7.8 0.00 0.00 0.00 90 1014.4
20260904142559 64 119 4.3 5.2 0.00 0.00 0.00 91 1014.3
20260904142054 63 91 4.3 5.2 0.00 0.00 0.00 92 1014.4
20260904141549 63 122 4.3 5.2 0.00 0.00 0.00 93 1014.4